This is the latest recevied weather packets stored in our database for station/object N9WHM. If no packets are shown the sender has not sent any weather packets the latest 10 day(s).
| Time | Temp. | Humidity | Pressure | Rain* | Wind** | Luminosity | Snow |
|---|---|---|---|---|---|---|---|
| 1777831064 | 21.67° C | 32% | 1011 hPa | 0 mm | - | 872 W/m² | - |
| 1777830762 | 21.67° C | 32% | 1010.8 hPa | 0 mm | - | 828 W/m² | - |
| 1777830458 | 21.67° C | 33% | 1011.5 hPa | 0 mm | - | 786 W/m² | - |
| 1777830157 | 21.67° C | 34% | 1011.2 hPa | 0 mm | - | 623 W/m² | - |
| 1777829856 | 21.67° C | 32% | 1011 hPa | 0 mm | - | 506 W/m² | - |
| 1777829552 | 21.67° C | 34% | 1011.1 hPa | 0 mm | - | 783 W/m² | - |
| 1777829250 | 20.56° C | 33% | 1011.5 hPa | 0 mm | - | 745 W/m² | - |
| 1777828947 | 21.11° C | 33% | 1011.2 hPa | 0 mm | - | 274 W/m² | - |
| 1777828643 | 21.11° C | 34% | 1011.2 hPa | 0 mm | - | 675 W/m² | - |
| 1777828340 | 21.67° C | 33% | 1011.4 hPa | 0 mm | - | 855 W/m² | - |
| 1777828032 | 21.11° C | 33% | 1011.1 hPa | 0 mm | - | 765 W/m² | - |
| 1777827729 | 21.11° C | 33% | 1011.6 hPa | 0 mm | - | 740 W/m² | - |
| 1777827426 | 21.11° C | 33% | 1011.6 hPa | 0 mm | - | 714 W/m² | - |
| 1777827123 | 21.11° C | 33% | 1011.4 hPa | 0 mm | - | 670 W/m² | - |
| 1777826819 | 21.11° C | 33% | 1011.4 hPa | 0 mm | - | 516 W/m² | - |
| 1777826516 | 20.56° C | 34% | 1011.6 hPa | 0 mm | - | 650 W/m² | - |
| 1777826212 | 20.56° C | 35% | 1011.6 hPa | 0 mm | - | 589 W/m² | - |
| 1777825910 | 20.56° C | 35% | 1011.5 hPa | 0 mm | - | 557 W/m² | - |
| 1777825607 | 20.56° C | 35% | 1011.7 hPa | 0 mm | - | 454 W/m² | - |
| 1777825305 | 20° C | 35% | 1011.8 hPa | 0 mm | - | 608 W/m² | - |
| 1777825001 | 20.56° C | 34% | 1011.6 hPa | 0 mm | - | 556 W/m² | - |
| 1777824697 | 20° C | 35% | 1011.5 hPa | 0 mm | - | 592 W/m² | - |
| 1777824395 | 20° C | 35% | 1011.7 hPa | 0 mm | - | 494 W/m² | - |
| 1777824090 | 20° C | 37% | 1011.5 hPa | 0 mm | - | 590 W/m² | - |
| 1777823787 | 20° C | 36% | 1011.5 hPa | 0 mm | - | 543 W/m² | - |
* Rain latest hour (hover to see other rain measurements)
** Current wind speed in m/s (hover to see current wind gust speed)